TimeCDT,TemperatureF,Dew PointF,Humidity,Sea Level PressureIn,VisibilityMPH,Wind Direction,Wind SpeedMPH,Gust SpeedMPH,PrecipitationIn,Events,Conditions,WindDirDegrees,DateUTC
12:52 AM,71.1,71.1,100,29.82,9.0,Calm,Calm,-,N/A,,Clear,0,2013-07-23 05:52:00
1:52 AM,70.0,70.0,100,29.82,7.0,Calm,Calm,-,N/A,,Clear,0,2013-07-23 06:52:00
2:52 AM,69.1,69.1,100,29.82,8.0,SSW,4.6,-,N/A,,Clear,210,2013-07-23 07:52:00
3:52 AM,68.0,68.0,100,29.80,7.0,Calm,Calm,-,N/A,,Clear,0,2013-07-23 08:52:00
4:52 AM,69.1,69.1,100,29.81,10.0,SW,3.5,-,N/A,,Clear,220,2013-07-23 09:52:00
5:52 AM,66.9,66.9,100,29.81,8.0,Calm,Calm,-,N/A,,Clear,0,2013-07-23 10:52:00
6:52 AM,68.0,68.0,100,29.83,10.0,Calm,Calm,-,N/A,,Clear,0,2013-07-23 11:52:00
7:52 AM,73.0,70.0,90,29.91,10.0,NNW,9.2,-,N/A,,Clear,340,2013-07-23 12:52:00
8:52 AM,72.0,66.9,84,29.96,10.0,Variable,3.5,-,N/A,,Clear,0,2013-07-23 13:52:00
9:52 AM,72.0,70.0,93,29.87,10.0,NE,16.1,25.3,0.00,,Partly Cloudy,40,2013-07-23 14:52:00
10:43 AM,73.4,69.8,88,30.00,10.0,NNE,8.1,-,N/A,,Mostly Cloudy,30,2013-07-23 15:43:00
10:52 AM,73.0,69.1,87,29.93,10.0,ENE,15.0,25.3,N/A,,Scattered Clouds,60,2013-07-23 15:52:00
11:52 AM,72.0,66.9,84,29.85,10.0,ESE,11.5,21.9,0.00,,Clear,120,2013-07-23 16:52:00
12:52 PM,73.9,68.0,82,29.87,10.0,South,5.8,-,N/A,,Clear,180,2013-07-23 17:52:00
1:52 PM,73.9,70.0,87,29.87,10.0,East,4.6,-,N/A,,Partly Cloudy,90,2013-07-23 18:52:00
2:52 PM,73.9,69.1,85,29.89,10.0,Calm,Calm,-,N/A,,Clear,0,2013-07-23 19:52:00
3:52 PM,80.1,68.0,67,29.86,10.0,Variable,3.5,-,N/A,,Clear,0,2013-07-23 20:52:00
4:52 PM,81.0,68.0,65,29.88,10.0,ENE,10.4,-,N/A,,Clear,70,2013-07-23 21:52:00
5:52 PM,82.0,71.1,69,29.87,10.0,NNE,8.1,-,N/A,,Clear,30,2013-07-23 22:52:00
6:52 PM,82.0,72.0,71,29.87,10.0,NE,11.5,-,N/A,,Clear,40,2013-07-23 23:52:00
7:52 PM,81.0,71.1,72,29.85,10.0,NE,11.5,-,N/A,,Scattered Clouds,50,2013-07-24 00:52:00
8:52 PM,75.9,71.1,85,29.87,10.0,NE,10.4,-,N/A,,Clear,40,2013-07-24 01:52:00
9:52 PM,75.0,70.0,84,29.90,10.0,NE,8.1,-,N/A,,Mostly Cloudy,50,2013-07-24 02:52:00
10:52 PM,73.0,70.0,90,29.93,10.0,NNE,6.9,-,N/A,,Clear,30,2013-07-24 03:52:00
11:52 PM,71.1,70.0,96,29.93,10.0,NNE,9.2,-,N/A,,Clear,30,2013-07-24 04:52:00